Flag for Netherlands Weather past 2 weeks in Breda, Netherlands

Now
57 °F

Fog.


Feels Like: 57 °F
Forecast: 58 / 76 °F
Wind: 5 mph from Northeast

Location: Gilze-Rijen

Current Time: Sep 18, 2014 at 4:03:49 AM

Latest Report: Sep 18, 2014 at 3:25 AM


Visibility: 3 mi

Pressure: 29.83 "Hg

Humidity: 100%

Dew point: 57 °F

Location of BredaLocation

Historic Weather in Breda — Graph

°F

Breda temperature yesterday

Maximum temperature yesterday: 77 °F (at 2:25 PM)
Minimum temperature yesterday: 50 °F (at 6:25 AM)
Average temperature yesterday: 64 °F

Past Weeks' High & Low Weather Summary

 TemperatureHumidityPressure
High77 °F (Sep 17, 2:25 PM)100% (Sep 3, 2:25 AM)30.27 "Hg (Sep 3, 2:25 AM)
Low45 °F (Sep 11, 3:59 AM)47% (Sep 15, 3:25 PM)29.83 "Hg (Sep 17, 4:25 PM)
Average61 °F83%30.06 "Hg
* Reported Sep 3 2:25 AM — Sep 18 2:55 AM, Breda, Weather by CustomWeather, © 2014

Note: Actual official high and low records may vary slightly from our data, if they occured in-between our weather recording intervals... More about our weather records

Advertising

Breda weather history for previous 24 hours

 ConditionsComfort  
Time TempWeatherWind HumidityBarometerVisibility
2:55 AM
Sep 18
57 °FFog.3 mph100%29.83 "Hg2 mi
2:25 AM59 °FFog.5 mph94%29.83 "Hg3 mi
1:55 AM59 °FFog.5 mph94%29.83 "Hg2 mi
1:25 AM59 °FFog.3 mph100%29.83 "Hg3 mi
12:55 AM59 °FFog.5 mph94%29.83 "Hg4 mi
12:25 AM61 °FFog.3 mph94%29.83 "Hg3 mi
11:59 PM
Sep 17
59 °FFog.2 mph100%29.83 "Hg4 mi
11:25 PM63 °FFog.5 mph88%29.83 "Hg6 mi
10:55 PM63 °FFog.5 mph88%29.86 "Hg6 mi
10:25 PM63 °FMild.2 mph88%29.86 "HgN/A
9:55 PM63 °FMild.1 mph88%29.86 "HgN/A
9:25 PM63 °FMild.3 mph88%29.86 "HgN/A
8:55 PM64 °FMild.2 mph83%29.86 "HgN/A
8:25 PM66 °FHaze.1 mph78%29.86 "Hg4 mi
8:04 PM68 °FHaze.2 mph73%29.86 "Hg2 mi
7:55 PM68 °FMild.2 mph73%29.86 "HgN/A
7:25 PM72 °FMild.6 mph65%29.83 "HgN/A
6:55 PM73 °FMild.8 mph61%29.83 "HgN/A
6:25 PM75 °FMild.8 mph57%29.83 "HgN/A
5:55 PM77 °FWarm.9 mph51%29.83 "HgN/A
5:25 PM77 °FWarm.8 mph47%29.83 "HgN/A
4:55 PM77 °FWarm.7 mph47%29.83 "HgN/A
4:25 PM77 °FWarm.8 mph51%29.83 "HgN/A
3:55 PM77 °FWarm.7 mph47%29.86 "HgN/A
3:25 PM77 °FPassing clouds.7 mph51%29.86 "HgN/A
2:55 PM77 °FPassing clouds.6 mph51%29.86 "HgN/A
2:25 PM77 °FWarm.9 mph51%29.86 "HgN/A
1:55 PM75 °FMild.8 mph57%29.86 "HgN/A
1:25 PM75 °FMild.8 mph57%29.89 "HgN/A
12:55 PM75 °FMild.9 mph57%29.89 "HgN/A
12:25 PM73 °FMild.9 mph61%29.89 "HgN/A
11:55 AM73 °FMild.8 mph65%29.89 "HgN/A
11:25 AM72 °FMild.6 mph69%29.89 "HgN/A
10:55 AM68 °FMild.6 mph73%29.89 "HgN/A
10:25 AM66 °FPassing clouds.6 mph78%29.89 "HgN/A
9:55 AM63 °FFog.6 mph88%29.89 "Hg5 mi
9:25 AM61 °FFog.5 mph88%29.89 "Hg4 mi
8:55 AM57 °FFog.3 mph100%29.89 "Hg3 mi
8:25 AM54 °FFog.2 mph100%29.89 "Hg2 mi
7:55 AM52 °FFog.2 mph100%29.89 "Hg2 mi
7:25 AM50 °FFog.3 mph100%29.89 "Hg1 mi
6:55 AM52 °FFog.2 mph100%29.89 "Hg1 mi
6:25 AM50 °FFog.2 mph100%29.89 "Hg1 mi
5:55 AM52 °FFog.2 mph100%29.89 "Hg2 mi
5:25 AM52 °FFog.2 mph100%29.89 "Hg2 mi
4:59 AM52 °FFog.1 mph100%29.92 "Hg2 mi
4:25 AM54 °FFog.1 mph100%29.92 "Hg2 mi
Weather by CustomWeather, © 2014

See weather overviewHow to use our weather pages